Weather History for Chillicothe, MO

Change the Weather History Date:

Monday, December 3, 2012

  Actual Average (KIRK) Record (KIRK)
Temperature  
Mean Temperature 60 °F 32 °F  
Max Temperature 72 °F 41 °F 71 °F (2012)
Min Temperature 48 °F 24 °F -5 °F (1929)
Degree Days  
Heating Degree Days 5 33  
Month to date heating degree days 97  
Since 1 July heating degree days 1318  
Cooling Degree Days 0 0  
Month to date cooling degree days 0  
Year to date cooling degree days 939  
Growing Degree Days 10 (Base 50)    
Moisture  
Dew Point 50 °F    
Average Humidity 68    
Maximum Humidity 97    
Minimum Humidity 52    
Precipitation  
Precipitation 0.00 in 0.06 in 0.80 in (1923)
Month to date precipitation 0.20  
Year to date precipitation 37.76  
Sea Level Pressure  
Sea Level Pressure 29.84 in    
Wind  
Wind Speed 10 mph (SSW)    
Max Wind Speed 23 mph    
Max Gust Speed 32 mph    
T = Trace of Precipitation, MM = Missing Value Source: NWS Daily Summary

Daily Weather History Graph

Daily Weather History Graph

Search for Another Location

Airport:

Trip Planner

Search our weather history database for the weather conditions in past years. The results will help you decide how hot, cold, wet, or windy it might be!

Date:

Astronomy

Dec. 03, 2012 Rise Set
Actual Time 7:18 AM CST 4:49 PM CST
Civil Twilight 6:48 AM CST 5:19 PM CST
Nautical Twilight 6:15 AM CST 5:53 PM CST
Astronomical Twilight 5:42 AM CST 6:25 PM CST
Moon 9:36 PM CST (12/3) 10:42 AM CST (12/3)
Length of Visible Light 10h 30m
Length of Day
9h 30m
Waning Gibbous, 78% of the Moon is Illuminated
Dec 3
Waning Gibbous
Dec 6
Last Quarter
Dec 13
New
Dec 19
First Quarter
Dec 28
Full

Hourly Weather History & Observations

Time (CST) Temp. Dew Point Humidity Pressure Visibility Wind Dir Wind Speed Gust Speed Precip Events Conditions
12:52 AM 48.9 °F 48.0 °F 97% 29.90 in - ESE 4.6 mph - N/A   Unknown
1:52 AM 51.1 °F 48.9 °F 92% 29.88 in - SE 5.8 mph - N/A   Unknown
2:52 AM 53.1 °F 51.1 °F 93% 29.85 in - SE 4.6 mph - N/A   Unknown
3:52 AM 60.1 °F 55.9 °F 86% 29.81 in - SSE 10.4 mph - N/A   Unknown
4:52 AM 62.1 °F 57.0 °F 84% 29.78 in - SSE 12.7 mph - N/A   Unknown
5:52 AM 62.1 °F 57.0 °F 84% 29.77 in - South 10.4 mph 19.6 mph N/A   Unknown
6:52 AM 64.0 °F 57.0 °F 78% 29.77 in - South 13.8 mph - N/A   Unknown
7:52 AM 64.0 °F 57.0 °F 78% 29.76 in - South 13.8 mph 23.0 mph N/A   Unknown
8:52 AM 64.9 °F 57.0 °F 75% 29.76 in - South 13.8 mph 23.0 mph N/A   Unknown
9:52 AM 66.9 °F 57.9 °F 73% 29.73 in - South 19.6 mph 32.2 mph N/A   Unknown
10:52 AM 68.0 °F 57.9 °F 70% 29.75 in - SSW 23.0 mph 31.1 mph N/A   Unknown
11:52 AM 71.1 °F 57.0 °F 61% 29.73 in - SSW 15.0 mph 28.8 mph N/A   Unknown
12:52 PM 71.1 °F 55.0 °F 57% 29.74 in - SW 17.3 mph 27.6 mph N/A   Unknown
1:52 PM 72.0 °F 54.0 °F 53% 29.75 in - SW 11.5 mph 27.6 mph N/A   Unknown
2:52 PM 72.0 °F 55.0 °F 55% 29.75 in - SSW 13.8 mph 24.2 mph N/A   Unknown
3:52 PM 71.1 °F 55.0 °F 57% 29.77 in - SSW 10.4 mph - N/A   Unknown
4:52 PM 64.0 °F 46.0 °F 52% 29.83 in - WNW 12.7 mph 18.4 mph N/A   Unknown
5:52 PM 61.0 °F 45.0 °F 56% 29.88 in - NNW 5.8 mph - N/A   Unknown
6:52 PM 57.9 °F 43.0 °F 58% 29.92 in - NNW 9.2 mph - N/A   Unknown
7:52 PM 57.9 °F 41.0 °F 53% 29.95 in - NNW 9.2 mph 18.4 mph N/A   Unknown
8:52 PM 55.9 °F 39.9 °F 55% 29.97 in - NNW 8.1 mph - N/A   Unknown
9:52 PM 54.0 °F 37.9 °F 55% 29.99 in - North 8.1 mph - N/A   Unknown
10:52 PM 53.1 °F 36.0 °F 52% 30.01 in - North 5.8 mph - N/A   Unknown
11:52 PM 48.0 °F 36.0 °F 63% 30.04 in - Calm Calm - N/A   Unknown